Zurück zum Katalog

STARLINK-2046

AktivKommunikationVLEO
NORAD 47354·PAYLOAD·🇺🇸 United States

Gestartet Jan 20, 2021 von Cape Canaveral Space Force Station

Loading…

Nächste Überflüge (nächste 24 Stunden)

TLE

AktuellSource: CelesTrak SupGP

Epoche: Sep 14, 2026, 20:24 UTC

1 47354C 21005F   26257.85048611  .00045882  00000+0  13855-2 0  2573
2 47354  53.1562 223.4411 0003421  77.8771 188.0846 15.33673886    17

Verfolge STARLINK-2046 in Echtzeit mit AllMySat

Download on the App Store